FW6261 Weather Reports


time (UTC)temp
F
wind
direction
speed
knots
gust
knots
rain 1hr
in
rain 24hr
in
rain mn
in
humidity
%
barometer
mb
20260504195021 75 157 3.5 12.2 0.00 0.00 0.00 31 1009.0
20260504194545 75 264 2.6 13.9 0.00 0.00 0.00 32 1008.9
20260504194022 75 96 5.2 14.8 0.00 0.00 0.00 31 1008.9
20260504193522 75 216 7.0 14.8 0.00 0.00 0.00 31 1009.0
20260504193036 75 180 3.5 10.4 0.00 0.00 0.00 32 1008.9
20260504192521 74 196 2.6 13.9 0.00 0.00 0.00 32 1008.9
20260504192021 75 226 4.3 13.9 0.00 0.00 0.00 32 1009.1
20260504191537 75 213 5.2 11.3 0.00 0.00 0.00 32 1009.1
20260504191022 75 182 4.3 10.4 0.00 0.00 0.00 31 1009.1
20260504190522 75 236 4.3 17.4 0.00 0.00 0.00 31 1009.2
20260504190041 75 221 2.6 17.4 0.00 0.00 0.00 31 1009.2
20260504185520 75 223 5.2 13.0 0.00 0.00 0.00 33 1009.3
20260504185021 74 211 2.6 11.3 0.00 0.00 0.00 32 1009.3
20260504184541 74 111 4.3 11.3 0.00 0.00 0.00 32 1009.4
20260504184022 73 204 4.3 13.9 0.00 0.00 0.00 33 1009.4
20260504183522 73 217 7.0 13.9 0.00 0.00 0.00 33 1009.6
20260504183038 74 219 1.7 13.9 0.00 0.00 0.00 33 1009.6
20260504182521 74 206 1.7 13.9 0.00 0.00 0.00 32 1009.8
20260504182023 74 234 5.2 13.0 0.00 0.00 0.00 32 1009.9
20260504181538 73 250 3.5 12.2 0.00 0.00 0.00 33 1010.0
20260504181021 73 194 4.3 15.6 0.00 0.00 0.00 33 1010.1
20260504180523 73 197 6.1 15.6 0.00 0.00 0.00 33 1010.2
20260504180047 73 180 6.1 12.2 0.00 0.00 0.00 33 1010.3
20260504175521 73 223 5.2 11.3 0.00 0.00 0.00 33 1010.2
20260504175022 73 250 4.3 11.3 0.00 0.00 0.00 33 1010.3
20260504174541 72 290 6.1 11.3 0.00 0.00 0.00 33 1010.4
20260504174022 72 219 3.5 14.8 0.00 0.00 0.00 33 1010.3
20260504173520 72 217 6.1 14.8 0.00 0.00 0.00 33 1010.5
20260504173040 72 213 2.6 13.0 0.00 0.00 0.00 34 1010.4
20260504172520 72 236 5.2 13.0 0.00 0.00 0.00 34 1010.5
20260504172020 72 323 3.5 11.3 0.00 0.00 0.00 34 1010.6
20260504171547 71 250 3.5 13.0 0.00 0.00 0.00 34 1010.7
20260504171022 71 232 5.2 15.6 0.00 0.00 0.00 34 1010.8
20260504170521 71 0 4.3 15.6 0.00 0.00 0.00 35 1010.8
20260504151021 68 259 3.5 13.0 0.00 0.00 0.00 36 1012.3
20260504150522 67 244 5.2 13.0 0.00 0.00 0.00 36 1012.3
20260504141024 64 244 5.2 9.6 0.00 0.00 0.00 44 1012.3
20260504140521 64 232 3.5 12.2 0.00 0.00 0.00 45 1012.3
20260504130521 58 244 3.5 9.6 0.00 0.00 0.00 59 1013.2
20260504110521 42 0 0.0 0.0 0.00 0.00 0.00 79 1013.8
20260504100520 40 0 0.0 0.0 0.00 0.00 0.00 77 1013.6
20260504081542 42 0 0.0 0.0 0.00 0.00 0.00 72 1013.3
20260504081021 42 0 0.0 0.0 0.00 0.00 0.00 72 1013.2
20260504080521 42 0 0.0 0.0 0.00 0.00 0.00 71 1013.2
20260504050521 46 0 0.0 0.0 0.00 0.00 0.00 65 1012.9
20260504045521 46 0 0.0 0.0 0.00 0.00 0.00 65 1012.8
20260504045020 46 0 0.0 1.7 0.00 0.00 0.00 64 1012.8
20260504044536 46 0 0.0 1.7 0.00 0.00 0.00 64 1012.8
20260504044019 46 0 0.0 1.7 0.00 0.00 0.00 64 1012.8
20260504043521 47 360 0.0 0.9 0.00 0.00 0.00 63 1012.8
20260504043046 47 0 0.0 0.9 0.00 0.00 0.00 63 1012.7
20260504042521 47 360 0.0 0.9 0.00 0.00 0.00 63 1012.8
20260504042022 47 0 0.0 0.0 0.00 0.00 0.00 62 1012.7
20260504041538 47 0 0.0 0.0 0.00 0.00 0.00 61 1012.6
20260504041020 47 0 0.0 0.9 0.00 0.00 0.00 61 1012.5
20260504040521 48 0 0.0 0.9 0.00 0.00 0.00 61 1012.5
20260504040045 48 0 0.0 0.9 0.00 0.00 0.00 60 1012.6
20260504035522 48 0 0.0 0.9 0.00 0.00 0.00 60 1012.4
20260504035020 48 0 0.0 0.9 0.00 0.00 0.00 59 1012.3
20260504034538 49 0 0.0 0.9 0.00 0.00 0.00 58 1012.4
20260504034020 49 0 0.0 1.7 0.00 0.00 0.00 58 1012.3
20260504033520 49 360 0.0 1.7 0.00 0.00 0.00 57 1012.3
20260504033038 49 0 0.0 0.9 0.00 0.00 0.00 56 1012.3
20260504032521 50 0 0.0 0.9 0.00 0.00 0.00 55 1012.3
20260504032022 50 0 0.0 0.9 0.00 0.00 0.00 54 1012.3
20260504031540 50 0 0.0 0.0 0.00 0.00 0.00 53 1012.3
20260504031021 51 0 0.0 0.0 0.00 0.00 0.00 53 1012.2
20260504030521 51 0 0.0 0.9 0.00 0.00 0.00 52 1012.1
20260504030036 51 0 0.0 1.7 0.00 0.00 0.00 52 1012.2
20260504025521 51 0 0.0 1.7 0.00 0.00 0.00 50 1012.2
20260504025020 51 360 0.0 1.7 0.00 0.00 0.00 50 1012.2
20260504024544 51 360 0.0 1.7 0.00 0.00 0.00 50 1012.2
20260504024021 52 360 0.0 2.6 0.00 0.00 0.00 49 1012.2
20260504023520 52 0 0.0 2.6 0.00 0.00 0.00 49 1012.2
20260504023041 52 360 0.9 2.6 0.00 0.00 0.00 48 1012.2
20260504022521 52 360 0.0 1.7 0.00 0.00 0.00 47 1012.2
20260504022020 52 0 0.0 2.6 0.00 0.00 0.00 47 1012.2
20260504021539 53 0 0.0 2.6 0.00 0.00 0.00 47 1012.2
20260504021020 53 0 0.0 2.6 0.00 0.00 0.00 46 1012.1
20260504020520 53 360 0.0 2.6 0.00 0.00 0.00 46 1012.1
20260504020037 53 360 0.0 1.7 0.00 0.00 0.00 45 1012.1
20260504015520 54 0 0.0 0.0 0.00 0.00 0.00 44 1012.2
20260504015024 54 0 0.0 0.0 0.00 0.00 0.00 44 1012.1
20260504014540 54 0 0.0 0.9 0.00 0.00 0.00 44 1012.0
20260504014020 54 0 0.0 0.9 0.00 0.00 0.00 43 1012.0
20260504013520 55 0 0.0 1.7 0.00 0.00 0.00 42 1012.0
20260504013049 55 0 0.0 1.7 0.00 0.00 0.00 42 1011.9
20260504012524 55 360 0.0 0.9 0.00 0.00 0.00 41 1011.8
20260504012020 55 0 0.0 0.9 0.00 0.00 0.00 40 1011.7
20260504011540 56 0 0.0 0.9 0.00 0.00 0.00 40 1011.6
20260504011019 56 0 0.0 0.9 0.00 0.00 0.00 39 1011.6
20260504010519 57 0 0.0 0.9 0.00 0.00 0.00 39 1011.5
20260504010046 57 0 0.0 0.9 0.00 0.00 0.00 38 1011.4
20260504005521 57 0 0.0 0.9 0.00 0.00 0.00 37 1011.4
20260504005023 57 0 0.0 0.9 0.00 0.00 0.00 37 1011.3
20260504004541 58 0 0.0 0.9 0.00 0.00 0.00 37 1011.3
20260504004020 58 0 0.0 0.9 0.00 0.00 0.00 36 1011.2
20260504003520 58 0 0.0 0.9 0.00 0.00 0.00 36 1011.2
20260504003038 58 0 0.0 2.6 0.00 0.00 0.00 35 1011.1
20260504002520 59 0 0.0 2.6 0.00 0.00 0.00 35 1011.1
20260504002020 59 0 0.9 4.3 0.00 0.00 0.00 34 1010.9
20260504001540 59 360 0.9 4.3 0.00 0.00 0.00 34 1010.8
20260504001020 59 360 0.9 4.3 0.00 0.00 0.00 34 1010.7
20260504000520 59 360 1.7 5.2 0.00 0.00 0.00 33 1010.6
20260504000042 60 360 2.6 7.0 0.00 0.00 0.00 33 1010.4
20260503235520 60 360 2.6 7.0 0.00 0.00 0.00 32 1010.5
20260503235019 60 360 3.5 11.3 0.00 0.00 0.00 32 1010.4
20260503234543 60 360 2.6 11.3 0.00 0.00 0.00 32 1010.4
20260503234021 60 360 4.3 11.3 0.00 0.00 0.00 31 1010.4
20260503233521 61 360 5.2 13.0 0.00 0.00 0.00 31 1010.4
20260503233042 61 211 4.3 13.0 0.00 0.00 0.00 31 1010.4
20260503232523 61 242 5.2 13.0 0.00 0.00 0.00 30 1010.2
20260503232022 61 248 4.3 11.3 0.00 0.00 0.00 30 1010.2
20260503231541 61 260 5.2 11.3 0.00 0.00 0.00 30 1010.2
20260503231023 61 278 2.6 13.9 0.00 0.00 0.00 30 1010.2
20260503230526 61 235 7.0 13.9 0.00 0.00 0.00 29 1010.2
20260503230038 62 225 5.2 10.4 0.00 0.00 0.00 29 1010.1
20260503225522 62 360 4.3 10.4 0.00 0.00 0.00 29 1010.1
20260503225022 61 360 4.3 11.3 0.00 0.00 0.00 29 1010.0
20260503224537 61 360 6.1 13.9 0.00 0.00 0.00 29 1010.0
20260503224022 61 360 7.8 13.9 0.00 0.00 0.00 29 1010.1
20260503223522 61 360 6.1 13.9 0.00 0.00 0.00 29 1010.1
20260503223037 61 360 5.2 15.6 0.00 0.00 0.00 29 1010.0
20260503222522 61 219 5.2 15.6 0.00 0.00 0.00 29 1010.1
20260503222022 62 252 4.3 11.3 0.00 0.00 0.00 29 1010.0
20260503221543 62 210 4.3 13.9 0.00 0.00 0.00 29 1010.0
20260503221022 62 224 6.1 13.9 0.00 0.00 0.00 28 1009.9
20260503220522 62 222 4.3 9.6 0.00 0.00 0.00 28 1010.0
20260503220041 62 255 4.3 14.8 0.00 0.00 0.00 29 1010.0
20260503215521 61 210 4.3 14.8 0.00 0.00 0.00 28 1010.0
20260503215021 62 250 7.8 14.8 0.00 0.00 0.00 28 1010.1
20260503214541 62 267 6.1 12.2 0.00 0.00 0.00 28 1010.1
20260503214022 61 222 5.2 13.0 0.00 0.00 0.00 29 1009.9
20260503213522 61 238 5.2 15.6 0.00 0.00 0.00 28 1010.1
20260503213037 61 296 6.1 15.6 0.00 0.00 0.00 29 1010.1
20260503212523 61 242 7.8 15.6 0.00 0.00 0.00 28 1010.0
20260503212023 61 230 8.7 14.8 0.00 0.00 0.00 29 1010.1
20260503211538 61 249 8.7 17.4 0.00 0.00 0.00 28 1010.0
20260503211022 61 293 7.0 17.4 0.00 0.00 0.00 28 1010.1
20260503210522 61 283 7.8 16.5 0.00 0.00 0.00 28 1010.1
20260503210043 61 259 6.1 13.0 0.00 0.00 0.00 29 1010.1
20260503205524 61 281 7.0 13.9 0.00 0.00 0.00 29 1010.0
20260503205022 61 248 7.0 16.5 0.00 0.00 0.00 29 1010.1
20260503204543 61 231 8.7 16.5 0.00 0.00 0.00 29 1010.1
20260503204022 61 261 4.3 15.6 0.00 0.00 0.00 29 1010.1
20260503203522 60 360 7.0 15.6 0.00 0.00 0.00 29 1010.1
20260503203049 60 360 7.8 15.6 0.00 0.00 0.00 30 1010.1
20260503202522 60 360 7.8 17.4 0.00 0.00 0.00 29 1010.1
20260503202021 60 360 8.7 17.4 0.00 0.00 0.00 29 1010.2
20260503201543 60 274 7.0 15.6 0.00 0.00 0.00 29 1010.1
20260503201059 60 249 7.8 16.5 0.00 0.00 0.00 28 1010.3
20260503200521 60 292 4.3 16.5 0.00 0.00 0.00 29 1010.3
20260503200038 60 274 7.8 16.5 0.00 0.00 0.00 28 1010.3
20260503195525 60 321 4.3 13.0 0.00 0.00 0.00 30 1010.2